Yatton Keynell, United Kingdom

3:12 PM GMT on March 25, 2019 (GMT +0000)
Yatton Keynell

Weather History for 03740 - August, 2008

Change the Weather History Date:

Thursday, August 14, 2008

  Actual Average Record
Temperature  
Mean Temperature 56 °F -  
Max Temperature 65 °F 66 °F - ()
Min Temperature 48 °F 51 °F - ()
Degree Days  
Heating Degree Days 8    
Growing Degree Days 6 (Base 50)    
Moisture  
Dew Point 50 °F    
Average Humidity 79    
Maximum Humidity 100    
Minimum Humidity 43    
Precipitation  
Precipitation 0.00 in 0.08 in - ()
Sea Level Pressure  
Sea Level Pressure 29.90 in    
Wind  
Wind Speed 8 mph ()    
Max Wind Speed 13 mph    
Max Gust Speed -    
Visibility 7.7 miles    
Events Rain    
T = Trace of Precipitation, MM = Missing Value Source: Averaged Metar Reports

Daily Weather History Graph

Daily Weather History Graph

Search for Another Location

Airport or City:

Astronomy

Aug. 14, 2008 Rise Set
Actual Time 5:52 AM BST 8:31 PM BST
Civil Twilight 5:14 AM BST 9:09 PM BST
Nautical Twilight 4:26 AM BST 9:57 PM BST
Astronomical Twilight 3:27 AM BST 10:55 PM BST
Moon 7:40 PM BST (8/14) 2:38 AM BST (8/14)
Length of Visible Light 15h 54m
Length of Day
14h 39m
Waxing Gibbous, 94% of the Moon is Illuminated
Aug 14
Waxing Gibbous
Aug 16
Full
Aug 24
Last Quarter
Aug 30
New
Sep 7
First Quarter

Hourly Weather History & Observations

Time (BST) Temp. Dew Point Humidity Pressure Visibility Wind Dir Wind Speed Gust Speed Precip Events Conditions
12:50 AM 52 °F 50 °F 89% 29.83 in 11 mi SW 10.4 mph - - Rain Light Rain Showers
12:50 AM 51.8 °F 50.0 °F 94% 29.80 in 6.2 mi SW 10.4 mph - N/A Rain Light Rain Showers
1:50 AM 51.8 °F 50.0 °F 94% 29.83 in 6.2 mi SW 9.2 mph - N/A   Scattered Clouds
2:50 AM 50.0 °F 50.0 °F 100% 29.83 in 6.2 mi SSW 6.9 mph - N/A   Partly Cloudy
3:50 AM 50 °F 49 °F 95% 29.86 in 12 mi SSW 6.9 mph - -   Partly Cloudy
3:50 AM 50.0 °F 48.2 °F 94% 29.83 in 6.2 mi SSW 6.9 mph - N/A   Partly Cloudy
4:50 AM 50.0 °F 48.2 °F 94% 29.83 in 6.2 mi SSW 6.9 mph - N/A   Partly Cloudy
5:50 AM 48.2 °F 48.2 °F 100% 29.86 in 6.2 mi SSW 6.9 mph - N/A   Partly Cloudy
6:50 AM 50 °F 49 °F 96% 29.88 in 14 mi SSW 5.8 mph - -   Partly Cloudy
6:50 AM 50.0 °F 50.0 °F 100% 29.86 in 6.2 mi SSW 5.8 mph - N/A   Scattered Clouds
7:50 AM 51.8 °F 50.0 °F 94% 29.89 in 6.2 mi SSW 5.8 mph - N/A   Partly Cloudy
8:50 AM 55.4 °F 51.8 °F 88% 29.89 in 6.2 mi SW 8.1 mph - N/A   Partly Cloudy
9:50 AM 58 °F 52 °F 74% 29.91 in 16 mi SW 8.1 mph - -   Scattered Clouds
9:50 AM 57.2 °F 51.8 °F 82% 29.89 in 6.2 mi SW 8.1 mph - N/A   Partly Cloudy
10:50 AM 59.0 °F 50.0 °F 72% 29.89 in 6.2 mi WSW 9.2 mph - N/A   Mostly Cloudy
11:50 AM 62.6 °F 48.2 °F 59% 29.89 in 6.2 mi SW 11.5 mph - N/A   Mostly Cloudy
12:50 PM 64 °F 47 °F 43% 29.90 in 19 mi SW 11.5 mph - -   Partly Cloudy
12:50 PM 64.4 °F 46.4 °F 52% 29.89 in 6.2 mi SW 11.5 mph - N/A   Mostly Cloudy
1:50 PM 64.4 °F 51.8 °F 64% 29.89 in 6.2 mi West 8.1 mph - N/A   Scattered Clouds
2:50 PM 62.6 °F 46.4 °F 55% 29.92 in 6.2 mi SW 12.7 mph - N/A   Partly Cloudy
3:50 PM 57 °F 49 °F 67% 29.92 in 9 mi SW 9.2 mph - - Rain Light Rain Showers
3:50 PM 57.2 °F 48.2 °F 72% 29.92 in 6.2 mi SW 9.2 mph - N/A Rain Light Rain Showers
4:50 PM 60.8 °F 50.0 °F 68% 29.92 in 6.2 mi SW 6.9 mph - N/A   Scattered Clouds
5:50 PM 62.6 °F 50.0 °F 63% 29.92 in 6.2 mi SSW 8.1 mph - N/A   Scattered Clouds
6:50 PM 62 °F 49 °F 52% 29.93 in 31 mi WSW 9.2 mph - -   Partly Cloudy
6:50 PM 62.6 °F 48.2 °F 59% 29.92 in 6.2 mi WSW 9.2 mph - N/A   Scattered Clouds
7:50 PM 59.0 °F 50.0 °F 72% 29.92 in 6.2 mi SW 5.8 mph - N/A   Partly Cloudy
8:50 PM 55.4 °F 51.8 °F 88% 29.95 in 6.2 mi SW 5.8 mph - N/A   Scattered Clouds
9:50 PM 54 °F 51 °F 84% 29.98 in 25 mi SW 6.9 mph - -   Scattered Clouds
9:50 PM 53.6 °F 50.0 °F 88% 29.95 in 6.2 mi SW 6.9 mph - N/A   Scattered Clouds
10:50 PM 53.6 °F 50.0 °F 88% 29.98 in 6.2 mi SW 6.9 mph - N/A   Scattered Clouds
11:50 PM 51.8 °F 50.0 °F 94% 29.98 in 6.2 mi SW 5.8 mph - N/A   Partly Cloudy